This is the latest recevied weather packets stored in our database for station/object KQ4WWD. If no packets are shown the sender has not sent any weather packets the latest 10 day(s).
| Time | Temp. | Humidity | Pressure | Rain* | Wind** | Luminosity | Snow |
|---|---|---|---|---|---|---|---|
| 1777751861 | 20° C | 96% | 1009.7 hPa | 1.27 mm | - | 34 W/m² | - |
| 1777751557 | 20° C | 96% | 1009.8 hPa | 4.32 mm | - | 33 W/m² | - |
| 1777751253 | 20° C | 96% | 1010.5 hPa | 4.83 mm | - | 38 W/m² | - |
| 1777750951 | 20° C | 96% | 1010.4 hPa | 4.83 mm | - | 41 W/m² | - |
| 1777750646 | 20° C | 96% | 1011 hPa | 4.83 mm | - | 38 W/m² | - |
| 1777750344 | 20° C | 95% | 1010.4 hPa | 4.83 mm | - | 38 W/m² | - |
| 1777750043 | 20° C | 95% | 1010.2 hPa | 4.83 mm | - | 34 W/m² | - |
| 1777749741 | 20° C | 95% | 1010.5 hPa | 4.83 mm | - | 31 W/m² | - |
| 1777749438 | 20° C | 96% | 1010.6 hPa | 6.1 mm | - | 35 W/m² | - |
| 1777749136 | 20° C | 96% | 1010.8 hPa | 6.1 mm | - | 34 W/m² | - |
| 1777748833 | 20° C | 95% | 1011.1 hPa | 4.32 mm | - | 35 W/m² | - |
| 1777748531 | 20° C | 95% | 1011 hPa | 3.05 mm | - | 36 W/m² | - |
| 1777748230 | 20° C | 95% | 1011.3 hPa | 3.05 mm | - | 32 W/m² | - |
| 1777747927 | 20° C | 95% | 1011.2 hPa | 3.05 mm | - | 26 W/m² | - |
| 1777747623 | 20.56° C | 95% | 1011.3 hPa | 1.78 mm | - | 24 W/m² | - |
| 1777747324 | 20° C | 94% | 1011.3 hPa | 1.78 mm | - | 18 W/m² | - |
| 1777747021 | 20° C | 94% | 1011.6 hPa | 3.56 mm | - | 14 W/m² | - |
| 1777746717 | 20° C | 94% | 1011.2 hPa | 6.1 mm | - | 14 W/m² | - |
| 1777746412 | 20° C | 94% | 1010.9 hPa | 13.21 mm | - | 13 W/m² | - |
| 1777746108 | 20° C | 94% | 1011 hPa | 21.59 mm | - | 10 W/m² | - |
| 1777745806 | 20° C | 94% | 1011.5 hPa | 27.69 mm | - | 9 W/m² | - |
| 1777745504 | 20.56° C | 93% | 1011.4 hPa | 19.81 mm | - | 11 W/m² | - |
| 1777745201 | 21.67° C | 91% | 1011.9 hPa | 4.32 mm | - | 7 W/m² | - |
| 1777744898 | 23.33° C | 85% | 1011.3 hPa | 0 mm | - | 10 W/m² | - |
| 1777744597 | 24.44° C | 78% | 1011.4 hPa | 0 mm | - | 6 W/m² | - |
* Rain latest hour (hover to see other rain measurements)
** Current wind speed in m/s (hover to see current wind gust speed)